Regional Weather Roundup
Issued by NWS

Home | Current Version | Previous Version | Graphics & Text | Print | Product List | Glossary On
Versions: 1 2 3 4 5 6 7 8 9 10 11 12 13 14 15 16 17 18 19 20 21 22 23 24 25 26 27 28 29 30 31 32 33 34 35 36 37 38 39 40 41 42 43 44 45 46 47 48 49 50
000
ASUS43 KMPX 222201
RWRMN
WEATHER ROUNDUP FOR MINNESOTA
NATIONAL WEATHER SERVICE TWIN CITIES/CHANHASSEN MN
500 PM CDT MON MAY 22 2017


NOTE: "FAIR" INDICATES FEW OR NO CLOUDS BELOW 12,000 FEET WITH NO
SIGNIFICANT WEATHER AND/OR OBSTRUCTIONS TO VISIBILITY. N/A MEANS
CURRENT SKY AND/OR WEATHER CONDITIONS ARE NOT AVAILABLE.

MNZ060>063-068>070-222300-
   Twin Cities Metro

CITY           SKY/WX    TMP DP  RH WIND       PRES   REMARKS
TWIN CITIES    MOSUNNY   66  42  41 NW13      29.81F
ST PAUL        MOSUNNY   64  42  44 W8G20     29.81F
CRYSTAL        MOSUNNY   64  41  42 NW14G20   29.81S
BLAINE         MOSUNNY   64  45  48 NW14G20   29.82S
LAKEVILLE      PTSUNNY   63  48  59 W8        29.82S
EDEN PRAIRIE   MOSUNNY   66  41  40 W13       29.81S
SOUTH ST PAUL  SUNNY     65  40  39 W10       29.80F
LAKE ELMO      FAIR      64  45  48 W14       29.82F
$$
MNZ001>005-007-008-013>017-022>024-027-028-222300-
   Northwest Minnesota

CITY           SKY/WX    TMP DP  RH WIND       PRES   REMARKS
BEMIDJI        LGT RAIN  46  44  92 NW9       29.82S
HALLOCK        PTSUNNY   52  48  87 N13       29.86S
ROSEAU         CLOUDY    48  45  87 N8        29.84R
WARROAD        CLOUDY    48  45  87 N8        29.84R
THIEF RVR FALL LGT RAIN  48  45  87 N9        29.86S
CROOKSTON      DRIZZLE   50  46  87 N14       29.87S
FOSSTON        CLOUDY    45  43  93 NW9       29.85S
DETROIT LAKES  PTSUNNY   52  43  71 NW17      29.86R
MOORHEAD       CLOUDY    54  43  66 NW20G25   29.88S
PARK RAPIDS    LGT RAIN  51  39  63 NW17      29.82S
MAHNOMEN       CLOUDY    49  44  82 NW14      29.85S
$$
MNZ006-009>011-018-025>026-222300-
   North Central Minnesota

CITY           SKY/WX    TMP DP  RH WIND       PRES   REMARKS
BAUDETTE       CLOUDY    50  45  83 NW14      29.81S
FLAG ISLAND    CLOUDY    48  43  81 N12       29.82R
INTL FALLS     LGT RAIN  49  43  80 NW9       29.79S
WASKISH        LGT RAIN  46  45  93 W6        29.82S
BIG FORK       LGT RAIN  48  45  87 NW5       29.81R
LONGVILLE      CLOUDY    52  46  82 CALM      29.80F
GRAND RAPIDS   CLOUDY    52  43  71 W9        29.81F
CRANE LAKE     DRIZZLE   48  45  87 NW5       29.80S
ORR            CLOUDY    48  43  81 NW6       29.77S
COOK           LGT RAIN  48  45  87 W6        29.80R
WALKER         CLOUDY    49  43  80 NW13      29.81S
$$
MNZ012-019>021-037-222300-
   Northeast Minnesota

CITY           SKY/WX    TMP DP  RH WIND       PRES   REMARKS
DULUTH         CLOUDY    53  44  71 W10       29.79S
ELY            CLOUDY    52  43  71 SW6       29.76S
HIBBING        LGT RAIN  48  44  86 NW13G23   29.79R FOG
EVELETH        CLOUDY    52  43  71 W16       29.79R
DULUTH HARBOR  CLOUDY    55  46  71 W8        29.81R
TWO HARBORS    CLOUDY    57  48  72 W7        29.77S
SILVER BAY     CLOUDY    55  45  67 W6        29.76S
GRAND MARAIS     N/A     44  40  85 SW9       29.76R
G MARAIS ARPRT CLOUDY    52  39  62 W10       29.76R
$$
MNZ029>031-032-039>041-046>048-054>057-064-222300-
   West Central Minnesota

CITY           SKY/WX    TMP DP  RH WIND       PRES   REMARKS
FERGUS FALLS   CLOUDY    54  43  66 N15       29.85S
WHEATON        MOSUNNY   59  39  47 NW16      29.88R
MORRIS         MOSUNNY   61  46  59 N14G21    29.85S
ALEXANDRIA     CLOUDY    55  42  61 NW13      29.85S
ELBOW LAKE     CLOUDY    54  42  62 W12       29.86S
WADENA         CLOUDY    52  41  66 W14       29.83S
GLENWOOD       MOSUNNY   61  43  51 NW17      29.85S
BENSON         PTSUNNY   63  43  48 N14G20    29.86S
ORTONVILLE     MOSUNNY   63  43  48 N15       29.85S
MADISON        PTSUNNY   64  46  52 NW12      29.84F
WILLMAR        FAIR      63  46  55 NW16      29.85F
$$
MNZ033>034-036-042>043-049>051-058-059-222300-
   Central Minnesota

CITY           SKY/WX    TMP DP  RH WIND       PRES   REMARKS
ST CLOUD       PTSUNNY   61  44  53 NW13      29.82S
SAUK CENTRE    MOCLDY    57  42  57 NW14      29.84S
PAYNESVILLE    PTSUNNY   59  44  56 NW14G20   29.84S
AITKIN         CLOUDY    52  41  66 W5        29.81R
PINE RIVER     CLOUDY    54  43  66 NW6       29.85F
BRAINERD       CLOUDY    53  41  63 W8        29.82S
STAPLES        CLOUDY    54  39  58 NW13      29.82F
LONG PRAIRIE   CLOUDY    52  41  66 W7        29.85R
LITTLE FALLS   CLOUDY    54  41  62 W9        29.84R
LITCHFIELD     MOSUNNY   63  45  51 W10       29.84S
BUFFALO        MOSUNNY   62  41  45 W9G18     29.84S
MAPLE LAKE     MOSUNNY   64  44  49 W10G16    29.84S
HUTCHINSON     MOSUNNY   64  46  53 W12       29.84S
$$
MNZ037-044-045-052-053-222300-
   East Central Minnesota

CITY           SKY/WX    TMP DP  RH WIND       PRES   REMARKS
PRINCETON      PTSUNNY   63  45  51 NW10      29.82F
MORA           PTSUNNY   55  41  58 W8        29.83S
CAMBRIDGE      PTSUNNY   63  45  51 W9        29.80S
RUSH CITY      CLOUDY    59  44  56 W7        29.82S
MOOSE LAKE     CLOUDY    54  41  62 W5        29.79S
HINCKLEY       CLOUDY    55  45  67 SW9       29.81S
CLOQUET        CLOUDY    54  41  62 W6        29.80R
MCGREGOR       CLOUDY    54  43  66 W7        29.81S
$$
MNZ071>073-080-081-089-090-097-098-222300-
   Southwest Minnesota

CITY           SKY/WX    TMP DP  RH WIND       PRES   REMARKS
MONTEVIDEO     MOSUNNY   64  45  48 N13G18    29.84F
CANBY          PTSUNNY   60  43  54 N7        29.86S
MARSHALL       LGT RAIN  58  48  69 N13       29.84F
REDWOOD FALLS  CLOUDY    61  44  53 N12       29.83F
OLIVIA         MOSUNNY   63  43  48 NW14      29.83F
PIPESTONE      CLOUDY    55  46  71 NW12      29.85S
WINDOM         MOSUNNY   61  46  59 N8        29.81F
WORTHINGTON    MOSUNNY   61  52  72 W17       29.83R
JACKSON        CLOUDY    59  50  72 NE9       29.82S
TRACY          CLOUDY    59  50  72 N9        29.83F
SLAYTON        CLOUDY    57  50  79 CALM      29.85S
$$
MNZ065>067-074>077-082>085-091>093-222300-
   South Central Minnesota

CITY           SKY/WX    TMP DP  RH WIND       PRES   REMARKS
MANKATO        CLOUDY    63  45  51 NW8       29.83F
NEW ULM        CLOUDY    63  45  51 N7        29.82F
ST JAMES       MOSUNNY   64  46  52 N10       29.82F
FAIRMONT       PTSUNNY   66  44  45 NE7       29.80F
GLENCOE        SUNNY     64  48  56 W8        29.83S
FARIBAULT      SUNNY     66  46  48 W9        29.83F
OWATONNA       MOSUNNY   64  45  48 W3        29.83F
WASECA         MOSUNNY   63  46  55 NW7       29.84F
ALBERT LEA     MOSUNNY   68  45  42 SW3       29.81F
$$
MNZ078>079-086>088-094>096-222300-
   Southeast Minnesota

CITY           SKY/WX    TMP DP  RH WIND       PRES   REMARKS
ROCHESTER      MOSUNNY   64  47  53 W7        29.83F
RED WING       PTSUNNY   66  41  39 W7        29.80F
STANTON        PTSUNNY   65  48  54 W8        29.81S
DODGE CENTER   MOSUNNY   66  43  42 SW8       29.82F
WINONA         PTSUNNY   70  46  43 NW7       29.82S
AUSTIN         PTSUNNY   66  45  45 SW6       29.81F
PRESTON        PTSUNNY   65  46  50 SW5       29.83F
$$
ABBREVIATIONS USED IN REMARKS
   TC - TEMPERATURES IN CELSIUS
  WCI - WIND CHILL INDEX
   HX - HEAT INDEX
  VSB - VISIBILITY
$$




USA.gov is the U.S. government's official web portal to all federal, state and local government web resources and services.